Simultaneous Nadir Overpasses (SNOs) Predictions

Prediction of SNOs between GOES-17 and TERRA Satellite Orbit:

Table of predicted SNOs for the next 14.0 days since TLE Epoch: 12/17/2023
Index Date Time (GOES-17) GOES-17 Lat,Lon TERRA Lat,Lon Distance(km) Time Diff (sec)
1 12/17/2023 16:43:53 0.02,-104.68 -0.66,-101.43 369.54 80
2 12/18/2023 05:04:06 -0.03,-104.67 -0.36,-106.34 189.42 80
3 12/20/2023 04:44:38 -0.03,-104.68 0.45,-102.28 271.68 80
4 12/20/2023 17:04:43 0.03,-104.68 0.56,-107.17 282.25 80
5 12/22/2023 16:50:35 0.03,-104.69 -0.27,-103.11 179.19 80
6 12/23/2023 05:10:48 -0.03,-104.69 -0.75,-108.03 379.35 80
7 12/25/2023 04:51:21 -0.00,-104.69 0.16,-103.98 81.32 80
8 12/25/2023 17:11:25 0.00,-104.70 0.88,-108.86 473.08 80
9 12/27/2023 16:54:37 0.01,-104.70 0.01,-104.81 11.55 80
10 12/29/2023 16:40:28 0.03,-104.71 -0.81,-100.74 450.82 80
11 12/30/2023 05:00:40 -0.03,-104.71 -0.21,-105.66 107.25 80
